GW6902 Weather Reports


time (UTC)temp
C
wind
direction
speed
KPH
gust
KPH
rain 1hr
cm
rain 24hr
cm
rain mn
cm
humidity
%
barometer
mb
20260504214706 26 40 1.6 4.8 0.00 0.00 0.00 35 1012.0
20260504214203 26 40 1.6 1.6 0.00 0.00 0.00 35 1012.1
20260504213700 26 45 1.6 1.6 0.00 0.00 0.00 36 1011.9
20260504213157 25 141 0.0 3.2 0.00 0.00 0.00 37 1012.0
20260504212653 26 108 1.6 3.2 0.00 0.00 0.00 35 1012.2
20260504212150 26 137 0.0 3.2 0.00 0.00 0.00 35 1012.2
20260504211647 26 69 0.0 3.2 0.00 0.00 0.00 33 1012.4
20260504211143 26 94 0.0 1.6 0.00 0.00 0.00 34 1012.2
20260504210642 26 130 0.0 1.6 0.00 0.00 0.00 36 1012.0
20260504210138 26 232 3.2 3.2 0.00 0.00 0.00 38 1012.3
20260504205635 27 97 1.6 3.2 0.00 0.00 0.00 33 1012.2
20260504205132 27 286 1.6 1.6 0.00 0.00 0.00 34 1012.2
20260504204631 27 274 0.0 1.6 0.00 0.00 0.00 37 1012.1
20260504204130 26 67 1.6 1.6 0.00 0.00 0.00 34 1011.8
20260504203628 26 49 1.6 3.2 0.00 0.00 0.00 35 1012.0
20260504203125 26 50 3.2 3.2 0.00 0.00 0.00 34 1012.1
20260504202625 27 89 1.6 3.2 0.00 0.00 0.00 33 1011.9
20260504202123 27 73 1.6 1.6 0.00 0.00 0.00 31 1012.0
20260504201619 26 88 1.6 3.2 0.00 0.00 0.00 34 1012.0
20260504201117 26 63 3.2 4.8 0.00 0.00 0.00 31 1012.1
20260504200614 26 74 1.6 1.6 0.00 0.00 0.00 33 1012.3
20260504200110 26 234 0.0 4.8 0.00 0.00 0.00 36 1012.1
20260504195607 26 16 1.6 3.2 0.00 0.00 0.00 31 1012.2
20260504195103 26 145 1.6 1.6 0.00 0.00 0.00 33 1012.1
20260504194600 26 149 0.0 4.8 0.00 0.00 0.00 33 1012.3
20260504194055 27 114 1.6 1.6 0.00 0.00 0.00 32 1012.1
20260504193552 27 71 0.0 1.6 0.00 0.00 0.00 35 1012.2
20260504193051 27 41 1.6 1.6 0.00 0.00 0.00 32 1012.4
20260504192548 27 86 0.0 1.6 0.00 0.00 0.00 34 1012.2
20260504192046 27 89 1.6 3.2 0.00 0.00 0.00 33 1012.2
20260504191544 27 68 0.0 4.8 0.00 0.00 0.00 32 1012.0
20260504191040 27 92 1.6 1.6 0.00 0.00 0.00 32 1012.1
20260504190537 26 52 0.0 3.2 0.00 0.00 0.00 33 1012.3
20260504190032 25 27 0.0 3.2 0.00 0.00 0.00 37 1011.9
20260504185530 26 189 3.2 3.2 0.00 0.00 0.00 33 1012.1
20260504185026 26 255 1.6 1.6 0.00 0.00 0.00 33 1012.0
20260504184521 26 131 1.6 3.2 0.00 0.00 0.00 33 1012.0
20260504184017 26 169 0.0 1.6 0.00 0.00 0.00 35 1012.3
20260504183515 26 180 1.6 1.6 0.00 0.00 0.00 32 1012.2
20260504183013 25 173 1.6 3.2 0.00 0.00 0.00 34 1012.3
20260504182509 26 117 1.6 1.6 0.00 0.00 0.00 34 1012.4
20260504182007 25 178 1.6 1.6 0.00 0.00 0.00 34 1012.5
20260504181503 25 197 1.6 3.2 0.00 0.00 0.00 37 1012.5
20260504181002 24 211 1.6 3.2 0.00 0.00 0.00 37 1012.4
20260504180501 25 237 3.2 9.7 0.00 0.00 0.00 36 1012.3
20260504175958 25 188 1.6 3.2 0.00 0.00 0.00 36 1012.5
20260504175455 24 213 1.6 4.8 0.00 0.00 0.00 36 1012.3
20260504174953 23 218 1.6 1.6 0.00 0.00 0.00 36 1012.5
20260504174450 23 232 3.2 3.2 0.00 0.00 0.00 37 1012.4
20260504173947 24 181 4.8 4.8 0.00 0.00 0.00 37 1012.2
20260504173443 23 124 1.6 1.6 0.00 0.00 0.00 36 1012.6
20260504172941 24 37 1.6 3.2 0.00 0.00 0.00 34 1012.5
20260504172437 24 130 0.0 1.6 0.00 0.00 0.00 36 1012.6
20260504171934 24 148 0.0 1.6 0.00 0.00 0.00 37 1012.3
20260504171431 23 141 0.0 0.0 0.00 0.00 0.00 38 1012.5
20260504170928 23 137 3.2 3.2 0.00 0.00 0.00 37 1012.6
20260504170424 23 127 0.0 1.6 0.00 0.00 0.00 38 1012.5
20260504160343 22 221 0.0 0.0 0.00 0.00 0.00 39 1012.3
20260504150808 18 220 0.0 0.0 0.00 0.00 0.00 52 1012.0
20260504150304 18 221 0.0 0.0 0.00 0.00 0.00 50 1012.0
20260504141235 14 220 0.0 0.0 0.00 0.00 0.00 50 1011.7
20260504140731 13 220 0.0 0.0 0.00 0.00 0.00 52 1011.7
20260504140226 13 220 0.0 0.0 0.00 0.00 0.00 50 1011.8
20260504130655 13 220 0.0 0.0 0.00 0.00 0.00 46 1011.3
20260504130151 13 220 0.0 1.6 0.00 0.00 0.00 43 1011.4
20260504120115 16 190 1.6 3.2 0.00 0.00 0.00 35 1011.2
20260504110543 17 207 1.6 3.2 0.00 0.00 0.00 34 1011.0
20260504100505 17 205 3.2 4.8 0.00 0.00 0.00 34 1011.2
20260504081857 17 195 1.6 3.2 0.00 0.00 0.00 36 1011.3
20260504081354 17 195 0.0 1.6 0.00 0.00 0.00 36 1011.0
20260504080850 17 190 0.0 1.6 0.00 0.00 0.00 35 1011.2
20260504080348 17 173 1.6 4.8 0.00 0.00 0.00 35 1011.2
20260504070315 16 189 1.6 3.2 0.00 0.00 0.00 39 1011.4
20260504060235 14 163 0.0 1.6 0.00 0.00 0.00 56 1011.7
20260504050703 17 160 1.6 1.6 0.00 0.00 0.00 42 1011.7
20260504050200 17 159 0.0 3.2 0.00 0.00 0.00 41 1011.5
20260504045658 17 154 1.6 1.6 0.00 0.00 0.00 43 1011.7
20260504045157 17 154 0.0 1.6 0.00 0.00 0.00 42 1011.7
20260504044655 17 147 1.6 1.6 0.00 0.00 0.00 43 1011.6
20260504044152 17 144 0.0 1.6 0.00 0.00 0.00 45 1011.4
20260504043649 17 142 0.0 1.6 0.00 0.00 0.00 45 1011.3
20260504043146 17 134 0.0 1.6 0.00 0.00 0.00 46 1011.6
20260504042644 17 120 0.0 1.6 0.00 0.00 0.00 46 1011.6
20260504042140 17 120 0.0 0.0 0.00 0.00 0.00 48 1011.6
20260504041636 17 120 0.0 1.6 0.00 0.00 0.00 48 1012.0
20260504041132 17 120 0.0 1.6 0.00 0.00 0.00 48 1011.9
20260504040630 17 119 1.6 1.6 0.00 0.00 0.00 48 1011.7
20260504040127 17 119 0.0 1.6 0.00 0.00 0.00 47 1011.7
20260504035623 17 119 0.0 0.0 0.00 0.00 0.00 47 1011.5
20260504035120 18 119 0.0 0.0 0.00 0.00 0.00 45 1011.6
20260504034618 18 119 0.0 0.0 0.00 0.00 0.00 44 1011.8
20260504034114 18 119 0.0 0.0 0.00 0.00 0.00 43 1011.3
20260504033612 18 119 1.6 1.6 0.00 0.00 0.00 41 1011.4
20260504033109 18 107 0.0 0.0 0.00 0.00 0.00 43 1011.6
20260504032606 19 107 0.0 0.0 0.00 0.00 0.00 43 1011.6
20260504032103 20 107 0.0 0.0 0.00 0.00 0.00 40 1011.6
20260504031600 19 107 0.0 0.0 0.00 0.00 0.00 41 1011.4
20260504031056 20 107 0.0 0.0 0.00 0.00 0.00 40 1011.4
20260504030553 20 107 0.0 0.0 0.00 0.00 0.00 38 1011.4
20260504030050 20 107 0.0 0.0 0.00 0.00 0.00 37 1011.7
20260504025547 21 107 0.0 0.0 0.00 0.00 0.00 36 1011.7
20260504025044 21 107 0.0 0.0 0.00 0.00 0.00 31 1011.8
20260504024541 21 107 0.0 0.0 0.00 0.00 0.00 30 1011.7
20260504024038 22 107 0.0 0.0 0.00 0.00 0.00 29 1011.7
20260504023534 22 107 0.0 0.0 0.00 0.00 0.00 28 1011.7
20260504023030 22 107 0.0 0.0 0.00 0.00 0.00 27 1011.8
20260504022526 23 107 0.0 0.0 0.00 0.00 0.00 27 1011.8
20260504022023 23 107 0.0 0.0 0.00 0.00 0.00 25 1011.9
20260504021520 23 107 0.0 0.0 0.00 0.00 0.00 24 1011.8
20260504021017 24 107 0.0 0.0 0.00 0.00 0.00 24 1012.0
20260504020514 24 107 0.0 0.0 0.00 0.00 0.00 24 1011.8
20260504020011 24 107 0.0 1.6 0.00 0.00 0.00 24 1012.0
20260504015507 24 107 0.0 0.0 0.00 0.00 0.00 26 1011.9
20260504015003 24 107 0.0 1.6 0.00 0.00 0.00 24 1012.0
20260504014459 24 106 0.0 0.0 0.00 0.00 0.00 25 1012.1
20260504013956 24 106 3.2 3.2 0.00 0.00 0.00 27 1012.3
20260504013455 25 106 3.2 3.2 0.00 0.00 0.00 25 1012.2
20260504012950 25 88 1.6 1.6 0.00 0.00 0.00 26 1012.4
20260504012448 26 88 1.6 1.6 0.00 0.00 0.00 25 1012.5
20260504011946 26 87 0.0 0.0 0.00 0.00 0.00 27 1012.8
20260504011442 25 87 1.6 1.6 0.00 0.00 0.00 27 1012.5
20260504010938 26 87 1.6 1.6 0.00 0.00 0.00 26 1012.4
20260504010434 26 87 0.0 1.6 0.00 0.00 0.00 27 1012.7
20260504005930 26 86 0.0 1.6 0.00 0.00 0.00 27 1012.7
20260504005427 26 87 0.0 0.0 0.00 0.00 0.00 28 1012.6
20260504004925 26 87 1.6 1.6 0.00 0.00 0.00 29 1012.7
20260504004422 26 87 0.0 0.0 0.00 0.00 0.00 27 1012.9
20260504003919 26 86 0.0 1.6 0.00 0.00 0.00 27 1012.9
20260504003415 27 80 0.0 0.0 0.00 0.00 0.00 29 1012.7
20260504002912 27 77 0.0 1.6 0.00 0.00 0.00 27 1012.9
20260504002409 27 77 0.0 0.0 0.00 0.00 0.00 33 1012.7
20260504001907 27 76 1.6 1.6 0.00 0.00 0.00 27 1012.9
20260504001404 27 75 1.6 1.6 0.00 0.00 0.00 25 1012.8
20260504000900 28 130 0.0 1.6 0.00 0.00 0.00 27 1012.9
20260504000358 28 131 0.0 1.6 0.00 0.00 0.00 30 1012.9
20260503235855 27 137 1.6 1.6 0.00 0.00 0.00 29 1012.9
20260503235353 27 136 0.0 1.6 0.00 0.00 0.00 27 1013.2
20260503234850 27 166 0.0 0.0 0.00 0.00 0.00 31 1013.0
20260503234348 27 167 0.0 1.6 0.00 0.00 0.00 29 1013.0
20260503233845 27 163 0.0 1.6 0.00 0.00 0.00 27 1013.2
20260503233341 28 113 1.6 1.6 0.00 0.00 0.00 29 1013.3
20260503232838 28 94 0.0 1.6 0.00 0.00 0.00 29 1013.2
20260503232335 27 91 0.0 1.6 0.00 0.00 0.00 27 1013.3
20260503231833 27 88 1.6 1.6 0.00 0.00 0.00 31 1013.5
20260503231330 27 117 1.6 3.2 0.00 0.00 0.00 29 1013.3
20260503230826 26 85 3.2 3.2 0.00 0.00 0.00 28 1013.5
20260503230323 26 223 3.2 4.8 0.00 0.00 0.00 29 1013.3
20260503225820 26 126 1.6 3.2 0.00 0.00 0.00 31 1013.6
20260503225316 26 254 3.2 4.8 0.00 0.00 0.00 29 1013.7
20260503224813 26 247 1.6 1.6 0.00 0.00 0.00 32 1013.8
20260503224310 26 261 0.0 1.6 0.00 0.00 0.00 31 1013.6
20260503223808 25 201 0.0 3.2 0.00 0.00 0.00 32 1013.9
20260503223305 26 264 1.6 4.8 0.00 0.00 0.00 28 1013.9
20260503222801 25 86 0.0 1.6 0.00 0.00 0.00 31 1014.1
20260503222259 25 107 1.6 3.2 0.00 0.00 0.00 35 1014.2
20260503221757 25 153 1.6 4.8 0.00 0.00 0.00 32 1014.0
20260503221255 25 91 0.0 1.6 0.00 0.00 0.00 33 1014.2
20260503220751 25 99 3.2 3.2 0.00 0.00 0.00 31 1014.3
20260503220248 25 100 1.6 1.6 0.00 0.00 0.00 31 1014.3
20260503215745 25 121 1.6 4.8 0.00 0.00 0.00 33 1014.6
20260503215242 25 170 0.0 1.6 0.00 0.00 0.00 34 1014.6